Date String (YYYY-MM-DD hh:mm:ss) UTC,Instrument flags,absolute air pressure of the measurement (hPa),sample flow rate (lpm),inlet stack bypass flow (lpm),air temperature of the measurement (°C),ambient temperature measured by the external sensor (°C),aerosol sample conditioner tube jacket temperature (°C),OPC LED temperature (°C),internal box temperature (°C),relative humidity of the measurement (%),span deviation,mass concentration of particles derived from Lorenz-Mie calculation of OPC scattering (μg/m³),mass concentration of particles derived from Lorenz-Mie calculation of OPC scattering (μg/m³),mass concentration of particles derived from Lorenz-Mie calculation of OPC scattering (μg/m³)
DateTimeUTC,F1_M11,P_M11,Q1_M11,Q2_M11,T1_M11,T2_M11,T3_M11,T4_M11,T5_M11,U1_M11,ZSPAN_M11,X0_M11,X2_M11,X1_M11
2023-11-04 22:00:00,SystemResetWarning,0832.8,5.00,000.00,027.6,025.7,000.0,035.9,029.0,12.9,0000.0,0007.61,0002.68,0002.04
2023-11-04 22:01:00,SystemResetWarning,0832.9,5.00,000.00,027.6,026.0,000.0,035.9,029.1,13.0,0000.0,0007.93,0002.62,0002.01
2023-11-04 22:02:00,SystemResetWarning,0832.8,5.00,000.00,027.7,026.2,000.0,035.9,029.2,13.0,0000.0,0008.08,0002.63,0001.98
2023-11-04 22:03:00,SystemResetWarning,0832.9,5.00,000.00,027.7,026.4,000.0,035.9,029.3,13.1,0000.0,0008.09,0002.63,0001.93
2023-11-04 22:04:00,SystemResetWarning,0833.1,4.99,000.00,027.8,026.6,000.0,035.9,029.3,13.2,0000.0,0008.09,0002.54,0001.88
2023-11-04 22:05:00,SystemResetWarning,0833.1,5.00,000.00,027.8,026.8,000.0,035.9,029.4,13.1,0000.0,0007.99,0002.49,0001.84
2023-11-04 22:06:00,SystemResetWarning,0832.8,5.00,000.00,027.8,026.9,000.0,036.0,029.5,13.0,0000.0,0008.05,0002.47,0001.84
2023-11-04 22:07:00,SystemResetWarning,0833.2,5.00,000.00,027.9,027.0,000.0,036.0,029.6,13.1,0000.0,0008.05,0002.45,0001.83
2023-11-04 22:08:00,SystemResetWarning,0833.0,5.00,000.00,028.0,027.1,000.0,036.0,029.6,12.8,0000.0,0008.25,0002.44,0001.80
2023-11-04 22:09:00,SystemResetWarning,0833.1,5.00,000.00,028.0,027.2,000.0,036.1,029.7,12.7,0000.0,0008.06,0002.43,0001.79
2023-11-04 22:10:00,SystemResetWarning,0832.8,5.00,000.00,028.1,027.3,000.0,036.1,029.7,12.7,0000.0,0007.51,0002.48,0001.81
2023-11-04 22:11:00,SystemResetWarning,0832.9,5.00,000.00,028.1,027.4,000.0,036.1,029.8,12.6,0000.0,0007.06,0002.54,0001.81
2023-11-04 22:12:00,SystemResetWarning,0832.8,4.98,000.00,028.1,026.3,000.0,036.1,029.7,12.6,0000.0,0006.60,0002.54,0001.81
2023-11-04 22:13:00,SystemResetWarning,0832.8,5.02,000.00,028.0,024.1,000.0,036.1,029.3,12.6,0000.0,0007.09,0002.53,0001.81
2023-11-04 22:14:00,SystemResetWarning,0832.7,5.00,000.00,027.9,023.6,000.0,036.0,029.1,12.9,0000.0,0006.87,0002.49,0001.83
2023-11-04 22:15:00,SystemResetWarning,0832.7,4.99,000.00,027.7,023.9,000.0,036.0,028.7,12.9,0000.0,0007.32,0002.52,0001.83
2023-11-04 22:16:00,SystemResetWarning,0832.7,5.00,000.00,027.6,024.4,000.0,036.0,028.6,13.1,0000.0,0007.32,0002.52,0001.83
2023-11-04 22:17:00,SystemResetWarning,0832.7,5.01,000.00,027.6,024.9,000.0,035.9,028.7,13.3,0000.0,0007.73,0002.53,0001.83
2023-11-04 22:18:00,SystemResetWarning,0832.7,4.99,000.00,027.6,025.3,000.0,035.9,028.9,12.9,0000.0,0007.94,0002.53,0001.83
2023-11-04 22:19:00,SystemResetWarning,0832.7,5.00,000.00,027.6,025.6,000.0,035.9,029.0,12.9,0000.0,0007.78,0002.51,0001.85
2023-11-04 22:20:00,SystemResetWarning,0832.7,5.00,000.00,027.6,025.9,000.0,035.9,029.1,12.9,0000.0,0007.71,0002.52,0001.85
2023-11-04 22:21:00,SystemResetWarning,0832.7,5.01,000.00,027.6,026.2,000.0,035.9,029.2,12.8,0000.0,0007.81,0002.52,0001.84
2023-11-04 22:22:00,SystemResetWarning,0832.7,5.00,000.00,027.7,026.4,000.0,035.9,029.3,12.7,0000.0,0008.23,0002.51,0001.84
2023-11-04 22:23:00,SystemResetWarning,0832.7,5.00,000.00,027.7,026.6,000.0,035.9,029.3,12.7,0000.0,0008.24,0002.50,0001.83
2023-11-04 22:24:00,SystemResetWarning,0832.7,5.00,000.00,027.8,026.7,000.0,035.9,029.4,12.7,0000.0,0008.58,0002.49,0001.81
2023-11-04 22:25:00,SystemResetWarning,0832.7,5.00,000.00,027.8,026.8,000.0,035.9,029.5,12.6,0000.0,0009.17,0002.46,0001.80
2023-11-04 22:26:00,SystemResetWarning,0832.7,5.00,000.00,027.9,027.0,000.0,036.0,029.5,12.6,0000.0,0009.60,0002.40,0001.79
2023-11-04 22:27:00,SystemResetWarning,0832.7,5.00,000.00,027.9,027.1,000.0,036.0,029.6,12.6,0000.0,0009.63,0002.38,0001.78
2023-11-04 22:28:00,SystemResetWarning,0832.7,5.00,000.00,028.0,027.2,000.0,036.0,029.6,12.5,0000.0,0009.22,0002.31,0001.77
2023-11-04 22:29:00,SystemResetWarning,0832.7,4.99,000.00,028.0,027.3,000.0,036.1,029.7,12.6,0000.0,0009.06,0002.34,0001.76
2023-11-04 22:30:00,SystemResetWarning,0832.7,4.99,000.00,028.1,027.4,000.0,036.1,029.7,12.6,0000.0,0009.59,0002.35,0001.75
2023-11-04 22:31:00,SystemResetWarning,0832.7,5.00,000.00,028.1,026.7,000.0,036.1,029.7,12.6,0000.0,0009.33,0002.33,0001.72
2023-11-04 22:32:00,SystemResetWarning,0832.7,5.00,000.00,028.0,024.5,000.0,036.1,029.3,12.6,0000.0,0009.23,0002.31,0001.70
2023-11-04 22:33:00,SystemResetWarning,0832.7,5.00,000.00,027.9,023.5,000.0,036.0,029.0,12.7,0000.0,0008.62,0002.23,0001.67
2023-11-04 22:34:00,SystemResetWarning,0832.7,5.02,000.00,027.7,023.8,000.0,036.0,028.7,12.8,0000.0,0008.52,0002.22,0001.66
2023-11-04 22:35:00,SystemResetWarning,0832.7,4.99,000.00,027.6,024.2,000.0,035.9,028.5,12.9,0000.0,0007.88,0002.22,0001.66
2023-11-04 22:36:00,SystemResetWarning,0832.7,5.01,000.00,027.6,024.7,000.0,035.9,028.6,12.7,0000.0,0006.95,0002.22,0001.68
2023-11-04 22:37:00,SystemResetWarning,0832.7,5.00,000.00,027.5,025.1,000.0,035.9,028.8,12.8,0000.0,0006.02,0002.26,0001.71
2023-11-04 22:38:00,SystemResetWarning,0832.7,5.00,000.00,027.5,025.5,000.0,035.9,028.9,12.8,0000.0,0006.85,0002.33,0001.73
2023-11-04 22:39:00,SystemResetWarning,0832.7,4.99,000.00,027.6,025.8,000.0,035.9,029.0,12.8,0000.0,0007.08,0002.40,0001.77
2023-11-04 22:40:00,SystemResetWarning,0832.7,4.99,000.00,027.6,026.1,000.0,035.9,029.1,12.9,0000.0,0007.42,0002.42,0001.79
2023-11-04 22:41:00,SystemResetWarning,0832.7,5.00,000.00,027.6,026.3,000.0,035.9,029.2,12.8,0000.0,0007.30,0002.48,0001.81
2023-11-04 22:42:00,SystemResetWarning,0832.8,5.00,000.00,027.7,026.5,000.0,035.9,029.3,12.8,0000.0,0007.33,0002.56,0001.85
2023-11-04 22:43:00,SystemResetWarning,0832.8,5.00,000.00,027.7,026.7,000.0,035.9,029.3,12.8,0000.0,0007.37,0002.58,0001.88
2023-11-04 22:44:00,SystemResetWarning,0832.7,4.98,000.00,027.8,026.8,000.0,035.9,029.4,12.7,0000.0,0007.49,0002.61,0001.91
2023-11-04 22:45:00,SystemResetWarning,0832.7,5.00,000.00,027.8,026.9,000.0,035.9,029.4,12.7,0000.0,0007.50,0002.63,0001.94
2023-11-04 22:46:00,SystemResetWarning,0832.7,5.00,000.00,027.9,027.0,000.0,036.0,029.5,12.6,0000.0,0007.62,0002.68,0001.96
2023-11-04 22:47:00,SystemResetWarning,0832.7,5.00,000.00,027.9,027.1,000.0,036.0,029.6,12.6,0000.0,0008.42,0002.73,0001.96
2023-11-04 22:48:00,SystemResetWarning,0832.6,5.01,000.00,028.0,027.2,000.0,036.0,029.6,12.6,0000.0,0008.92,0002.76,0001.93
2023-11-04 22:49:00,SystemResetWarning,0832.7,4.99,000.00,028.0,027.3,000.0,036.0,029.7,12.6,0000.0,0008.34,0002.78,0001.94
2023-11-04 22:50:00,SystemResetWarning,0832.6,4.99,000.00,028.1,027.4,000.0,036.1,029.7,12.7,0000.0,0008.27,0002.76,0001.92
2023-11-04 22:51:00,SystemResetWarning,0832.6,4.99,000.00,028.1,027.1,000.0,036.1,029.7,12.8,0000.0,0007.73,0002.76,0001.91
2023-11-04 22:52:00,SystemResetWarning,0832.6,5.00,000.00,028.1,025.0,000.0,036.1,029.4,12.7,0000.0,0007.42,0002.69,0001.89
2023-11-04 22:53:00,SystemResetWarning,0832.6,5.01,000.00,027.9,023.5,000.0,036.0,029.1,13.0,0000.0,0007.33,0002.62,0001.87
2023-11-04 22:54:00,SystemResetWarning,0832.6,5.01,000.00,027.8,023.6,000.0,036.0,028.8,13.0,0000.0,0007.26,0002.58,0001.83
2023-11-04 22:55:00,SystemResetWarning,0832.6,5.00,000.00,027.6,024.1,000.0,035.9,028.5,13.0,0000.0,0007.57,0002.57,0001.82
2023-11-04 22:56:00,SystemResetWarning,0832.6,4.98,000.00,027.5,024.5,000.0,035.9,028.6,12.9,0000.0,0007.91,0002.59,0001.79
2023-11-04 22:57:00,SystemResetWarning,0832.6,5.02,000.00,027.5,025.0,000.0,035.9,028.7,12.8,0000.0,0008.18,0002.63,0001.79
2023-11-04 22:58:00,SystemResetWarning,0832.6,5.00,000.00,027.5,025.4,000.0,035.9,028.9,12.9,0000.0,0008.34,0002.64,0001.81
2023-11-04 22:59:00,SystemResetWarning,0832.7,4.99,000.00,027.5,025.7,000.0,035.8,029.0,12.9,0000.0,0007.56,0002.69,0001.84
